Location: San Martino di Castrozza
(46.2667°N, 11.8000°E)
Time: 14:41:14
(UTC+00:00)

Okean 1 Rocket - Pass Details

Date: 23 April 2021
Orbit: 606 x 634 km, 82.5° (Epoch: 12 May)

Event Time Altitude Azimuth Distance (km) Brightness Sun altitude
Rises 02:55:01 0° 349° (N) 2,937 6.9 -12.7°
Reaches altitude 10° 02:57:16 10° 349° (N) 2,021 6.0 -12.4°
Maximum altitude 03:01:45 80° 263° (W) 644 3.0 -11.8°
Drops below altitude 10° 03:06:10 10° 177° (S) 1,989 5.4 -11.1°
Sets 03:08:22 0° 176° (S) 2,886 6.2 -10.8°
